Helicity
47 51 47 43 38 33 31 37 45 58 53 44 33 44 37 28 1 -25 43 65 13 39 57 103 92 80 35 29 10 13 37 62 21 10 -24 60 -11 -11 -36 28 4 11 -23 37 42
48 53 53 47 43 37 24 14 17 32 47 49 37 35 38 22 -35 -7 119 47 46 155 83 98 102 82 70 34 22 16 -4 26 -25 -21 22 58 26 82 -15 34 -48 -30 77 157 71
49 51 48 48 48 45 39 31 20 18 26 36 36 37 49 32 -14 17 38 45 93 146 86 101 117 111 72 52 28 15 -33 23 10 29 31 39 44 40 50 36 81 103 159 203 138
62 58 56 56 60 55 46 46 38 17 12 11 16 19 60 34 31 54 77 59 59 77 87 117 72 81 42 30 13 56 74 15 13 32 14 24 49 36 59 -37 51 114 211 226 159
67 65 70 69 75 85 71 42 29 17 6 -5 -6 10 45 32 -4 23 34 19 56 92 83 52 77 98 46 24 30 81 60 28 43 65 47 44 93 50 81 39 -4 167 217 190 143
79 71 76 87 104 110 101 58 39 27 13 -17 0 38 73 33 10 35 30 68 88 93 90 34 27 100 73 30 -12 6 28 56 34 48 2 66 45 57 40 112 97 170 231 187 124
76 84 76 90 120 146 132 104 62 44 17 -4 52 100 101 32 56 92 82 93 106 107 113 73 81 7 59 48 15 47 32 24 30 5 7 33 -17 126 68 143 155 138 167 164 120
45 67 82 78 130 149 117 100 73 53 51 72 113 144 68 37 20 77 72 82 14 51 43 61 92 -7 92 81 20 12 -2 -12 -12 -21 27 10 56 75 220 201 184 174 156 120 125
49 64 87 92 163 169 124 54 11 74 95 112 151 136 49 76 66 25 47 85 82 1 44 11 78 87 92 60 19 -7 21 -14 -22 -4 39 -27 -83 -2 221 204 196 188 165 110 101
60 67 101 130 179 181 126 -12 -17 48 75 86 136 87 64 72 58 105 115 107 186 89 71 110 126 77 65 2 7 12 -22 9 -8 28 12 -38 -24 28 113 162 219 217 137 133 62
66 61 82 173 175 104 65 -18 -12 0 62 66 98 71 108 117 58 111 168 188 208 190 234 150 172 190 78 61 35 58 -10 20 0 6 -1 -25 72 8 88 80 138 184 127 122 85
61 69 72 177 167 50 -3 -4 10 21 21 33 8 0 32 176 142 151 148 237 252 247 207 234 220 142 78 68 32 25 -11 13 3 40 18 0 -14 11 93 144 177 240 210 132 71
49 57 100 116 74 16 32 60 66 28 -41 2 80 109 84 135 155 147 161 253 221 228 247 237 103 151 129 39 34 -12 -81 -28 17 31 10 3 -36 16 23 33 97 155 136 76 65
43 47 84 84 -65 39 6 61 56 26 -55 -10 53 115 146 241 119 123 123 224 275 189 211 76 146 42 132 71 23 -19 17 47 -13 26 -14 22 13 -6 27 11 72 179 111 86 50
38 60 49 -43 -72 -35 39 65 64 31 16 78 113 73 122 199 270 174 134 248 183 219 317 227 175 174 59 133 95 37 42 32 36 15 48 -10 -4 -67 50 -15 -12 94 91 87 43
39 83 11 -71 -50 -6 48 93 66 102 60 172 151 148 124 111 194 235 260 224 198 191 106 126 146 101 133 37 94 78 57 99 106 60 -61 -39 -13 -43 -127 -23 2 -23 31 89 94
63 94 -39 -79 -50 16 44 115 129 185 276 282 312 274 205 206 158 149 201 336 335 272 198 93 132 109 78 78 21 38 52 86 71 2 -29 11 -62 -38 22 51 -11 -24 53 67 115
54 39 -21 -42 -23 2 36 173 214 300 372 381 286 332 230 260 206 205 118 246 225 225 159 165 142 95 111 87 134 71 79 213 174 17 18 101 -17 8 -68 2 -13 -1 -7 40 43
34 30 0 -11 12 -23 33 193 365 401 386 406 451 372 277 233 297 287 245 133 188 294 223 132 121 133 158 162 94 164 68 52 170 171 97 16 -42 -52 41 -2 32 -19 26 28 45
48 23 12 29 -4 -26 22 174 286 320 390 368 422 424 471 412 302 313 322 376 358 340 317 216 174 116 37 102 68 119 171 217 132 -18 19 7 48 122 85 123 63 4 -27 15 43
50 -4 25 33 -25 -25 10 91 76 131 214 321 425 475 537 530 435 379 386 302 460 423 348 268 215 203 154 189 206 222 149 169 125 210 15 23 9 -15 -13 50 86 45 15 -6 29
54 6 31 18 -2 -40 -22 38 15 82 59 93 159 269 345 437 518 397 355 400 556 478 403 395 257 206 132 123 74 103 153 184 227 174 76 59 5 -18 -89 -5 31 8 36 40 52
67 35 33 9 6 8 1 -33 -27 60 106 112 139 206 109 272 402 347 388 333 442 502 444 432 328 205 217 180 157 129 85 102 80 106 59 64 3 21 59 20 5 38 101 84 53
69 48 46 39 -9 -2 11 -19 -24 2 1 51 96 104 147 126 152 278 295 261 321 389 472 496 427 351 214 261 368 344 258 135 97 150 12 -57 -25 96 85 27 6 32 120 89 64
95 93 69 42 38 26 5 -7 -18 -13 7 49 20 51 195 152 134 143 162 190 160 238 316 384 442 498 428 470 384 346 368 370 289 139 46 -44 -43 -43 3 33 42 40 14 68 98
109 103 102 67 25 19 27 2 0 3 -6 33 69 87 29 112 210 97 127 114 114 167 184 260 349 391 410 444 375 318 296 295 226 192 175 -12 -50 63 79 -2 14 -7 -12 61 119
140 123 146 102 76 31 34 18 31 33 2 -3 45 58 132 112 90 89 138 147 133 146 136 181 263 285 245 322 357 156 178 206 179 188 176 -6 20 50 12 7 12 52 27 45 9
Wind_Speed
63 64 65 64 64 63 62 60 58 57 56 54 52 55 56 56 57 47 54 43 16 14 18 23 18 17 40 19 38 33 30 30 22 22 26 27 26 30 21 28 27 45 29 32 54
67 68 68 68 67 67 65 64 62 60 57 56 55 55 55 56 56 61 52 20 13 25 17 26 21 22 39 35 31 23 23 21 22 25 24 30 26 30 32 31 12 13 22 43 53
70 71 71 71 70 70 69 67 65 62 61 59 58 58 56 54 54 42 34 10 24 33 17 16 21 9 18 37 33 23 16 32 24 30 32 33 29 25 33 33 35 36 42 54 52
73 73 74 74 74 73 72 71 69 67 63 61 60 57 54 38 34 30 41 13 26 28 31 23 26 12 23 26 46 39 51 41 27 33 31 33 29 25 25 24 32 34 46 55 58
75 75 76 76 77 77 76 75 73 71 67 65 59 50 41 40 34 32 23 20 24 23 36 35 36 18 18 25 30 52 52 45 47 40 39 30 29 21 24 16 18 29 48 56 57
77 78 78 78 78 79 80 79 75 74 71 64 48 37 34 40 21 9 9 19 25 24 30 34 26 19 28 19 11 36 49 54 49 48 44 25 22 15 17 14 18 31 47 51 55
80 80 80 81 81 81 82 78 79 75 69 50 31 26 34 41 23 16 12 20 31 30 30 26 25 24 29 37 48 61 65 61 59 41 40 18 11 19 11 20 19 27 40 47 54
83 84 85 87 87 86 81 81 71 64 48 29 15 27 39 36 15 29 4 7 29 20 25 16 33 17 39 39 37 57 53 57 41 35 32 9 56 8 9 18 21 25 37 49 55
86 87 89 91 92 90 84 75 56 46 31 19 25 36 46 31 42 14 4 6 21 25 2 7 19 29 36 50 65 59 62 63 57 47 33 18 43 29 10 20 22 29 39 51 58
90 91 93 95 94 87 83 57 39 38 31 38 35 43 44 34 26 21 14 10 8 15 6 11 20 37 49 31 38 53 53 63 70 43 41 27 50 39 6 18 31 34 42 54 61
93 93 95 97 96 84 71 49 55 50 50 52 45 46 44 36 20 22 20 13 9 15 16 19 20 51 34 75 72 57 66 64 56 60 61 56 69 36 9 22 21 29 44 59 64
96 97 97 99 95 71 58 50 49 60 75 66 73 74 65 37 34 15 20 23 20 22 16 17 63 35 31 49 64 64 78 77 68 67 56 50 55 40 10 35 28 26 45 65 69
98 99 100 100 85 63 55 46 58 60 68 69 54 57 52 41 45 25 26 29 34 34 48 47 42 23 23 24 34 46 42 59 73 53 59 60 71 40 42 57 19 44 49 71 77
100 100 102 99 61 72 52 61 68 51 72 67 54 51 38 38 68 41 29 31 48 47 30 51 32 19 37 52 48 78 63 62 63 65 86 50 80 39 28 41 54 49 62 65 79
101 101 100 74 66 66 70 72 65 41 82 46 43 27 29 38 45 52 39 47 48 36 36 31 29 27 44 40 35 64 41 51 62 72 75 78 73 78 47 17 60 59 67 67 78
103 103 95 63 62 68 72 68 39 62 84 53 41 44 41 45 44 37 48 53 48 50 47 41 48 32 24 22 24 29 28 33 43 60 93 92 83 94 58 28 71 71 69 71 78
106 104 78 65 72 79 67 47 62 79 59 61 58 52 53 51 47 41 48 59 53 52 51 43 44 41 33 26 21 26 21 29 35 64 85 73 89 85 56 38 82 79 71 72 76
106 95 66 62 73 76 59 51 82 67 69 61 61 68 58 53 52 48 46 62 61 58 52 54 65 46 30 29 32 35 33 34 25 74 79 62 83 81 79 78 70 77 77 75 82
98 79 64 69 78 62 56 66 69 65 68 75 73 68 62 56 55 54 52 65 61 60 65 61 70 51 56 42 35 39 51 35 61 49 63 79 81 80 66 75 50 50 60 76 79
90 73 64 78 65 54 56 63 59 57 67 63 73 65 73 66 59 56 54 54 65 61 62 57 61 63 48 48 47 44 34 37 40 74 68 70 74 77 36 57 49 53 45 78 80
68 69 69 80 52 51 61 63 63 62 60 62 69 75 69 67 61 60 59 46 52 62 61 64 66 50 52 61 49 48 42 42 37 57 70 66 69 59 74 58 38 38 43 37 69
62 68 67 67 55 52 59 64 61 63 60 61 63 66 69 64 64 60 60 54 49 55 63 60 66 75 65 55 69 57 53 52 61 60 87 74 66 48 54 50 61 74 73 66 65
64 53 52 58 56 59 58 55 55 59 60 59 63 60 60 65 69 57 54 47 46 45 54 58 73 78 81 65 60 73 69 62 61 61 71 82 58 66 54 34 44 56 57 63 66
56 60 52 49 51 56 58 54 56 55 48 54 59 58 63 69 62 65 59 52 49 47 49 52 64 83 89 77 59 69 63 69 73 92 102 101 86 49 49 48 50 57 65 63 65
51 49 47 59 57 60 57 52 56 52 47 48 51 46 59 74 74 74 65 62 54 51 52 55 71 72 73 73 74 79 81 75 81 93 114 103 105 94 85 81 68 63 61 66 72
49 43 41 43 42 53 52 48 52 50 55 55 57 52 55 59 69 78 70 67 68 61 59 60 75 73 85 79 80 95 96 89 86 92 93 110 113 87 59 74 92 95 92 86 79
39 33 31 33 35 39 44 53 56 60 47 46 53 63 65 62 57 63 71 77 80 77 72 70 75 80 93 80 91 113 112 98 92 90 89 118 99 84 84 79 74 84 85 86 86
Wind_Direction
326 324 322 318 315 311 306 300 293 286 280 277 275 280 282 281 281 293 229 202 144 148 122 126 124 111 140 278 224 246 256 242 300 292 353 66 23 30 341 61 190 144 78 100 121
326 324 321 318 314 310 305 301 296 290 282 278 276 277 279 286 292 255 227 173 156 146 157 152 146 130 241 254 267 300 293 290 8 343 302 89 68 59 34 73 18 316 62 112 124
325 323 320 316 312 308 304 298 293 288 284 281 281 286 284 286 295 297 304 109 152 154 186 192 152 194 267 250 264 292 303 247 289 289 68 90 84 58 58 71 114 119 117 129 131
325 323 319 316 312 307 302 296 290 285 280 279 285 299 301 324 325 316 288 94 139 147 145 156 158 219 262 265 247 256 232 251 296 199 97 106 84 83 91 3 161 104 130 138 144
326 322 318 315 312 306 301 295 289 285 278 280 293 311 322 310 196 317 356 80 130 147 155 158 163 224 248 266 270 246 245 250 210 202 213 120 124 78 119 356 351 88 127 145 150
324 321 318 313 309 306 302 295 290 282 276 288 308 322 324 243 338 42 56 111 132 154 160 158 176 237 260 272 252 266 251 246 237 227 246 130 131 67 99 65 67 105 131 143 154
325 321 317 314 309 305 302 298 292 280 268 303 316 323 315 213 334 341 111 133 138 149 166 175 251 176 267 264 263 249 245 245 245 274 280 123 61 140 32 108 112 119 135 146 157
326 323 320 318 313 308 303 302 300 302 311 323 329 313 306 315 195 293 76 302 150 132 156 224 254 207 263 269 271 243 251 248 262 277 294 328 255 97 105 126 131 135 143 157 164
328 325 322 320 315 311 307 304 323 338 346 359 324 303 302 318 279 258 236 257 149 145 288 189 246 257 261 256 246 248 246 241 254 263 288 303 294 323 132 145 144 150 153 164 174
328 327 324 321 317 312 310 322 336 338 338 316 314 298 292 303 303 277 204 165 210 162 207 268 257 253 254 235 228 252 252 246 236 264 275 291 278 301 140 149 159 159 161 169 179
328 327 326 321 319 314 323 328 316 310 304 288 292 288 295 293 313 281 181 167 245 182 211 188 188 188 229 241 246 255 250 251 254 253 261 273 248 296 156 161 156 161 167 178 183
329 326 325 322 318 321 327 325 324 309 290 286 273 269 269 292 281 273 179 201 219 193 205 239 196 186 253 254 250 251 245 243 247 249 263 275 274 286 181 172 170 170 173 185 188
331 327 324 322 319 328 323 324 322 318 294 290 285 278 272 263 269 250 188 237 198 192 184 186 274 207 205 217 231 247 203 254 250 264 261 269 247 276 269 199 185 184 182 198 193
331 329 325 321 326 323 319 315 316 316 291 285 285 283 274 264 261 256 221 238 250 198 205 196 207 185 187 191 187 205 253 257 258 259 241 269 240 275 269 197 195 191 192 190 197
330 328 325 332 323 320 313 311 310 310 280 294 284 292 285 258 276 258 233 248 246 239 232 219 213 238 185 189 187 241 260 257 258 256 256 249 258 230 268 245 198 199 196 193 197
329 326 326 331 327 320 316 309 306 282 271 282 286 277 275 266 274 274 240 246 253 253 247 247 262 208 244 240 206 259 262 264 266 263 243 234 248 239 200 231 245 223 204 198 198
331 325 327 327 322 319 317 304 278 269 284 277 275 279 274 266 264 266 238 224 234 239 242 241 252 259 251 241 226 209 225 262 258 226 226 252 242 227 258 259 235 231 213 199 194
331 329 329 328 321 318 311 284 268 277 272 284 279 275 266 268 263 261 249 230 238 244 246 242 249 236 239 232 242 211 220 254 214 215 244 258 237 243 244 249 247 231 232 226 209
338 335 330 328 323 319 303 272 275 277 280 276 274 266 264 266 265 258 253 242 240 246 249 246 250 260 244 248 227 243 201 217 263 274 257 227 236 244 251 245 255 254 247 230 205
344 339 332 331 327 317 295 277 276 288 286 278 264 268 260 263 260 256 251 260 247 251 253 253 255 249 246 237 240 249 235 246 242 213 218 236 251 239 259 249 251 252 188 207 216
2 342 345 334 335 312 290 283 280 285 288 275 269 263 263 261 262 256 255 262 260 254 253 248 250 254 239 236 227 242 230 251 257 261 229 245 240 255 231 242 246 220 202 198 200
9 349 359 355 330 316 297 292 288 284 282 273 271 267 262 263 259 256 252 255 272 262 247 250 250 244 246 248 245 242 243 240 250 258 244 242 252 258 243 258 250 242 246 253 255
6 6 14 10 330 319 312 302 293 288 281 272 267 269 266 260 254 258 258 265 271 267 254 253 247 241 245 249 248 246 244 245 252 263 255 240 248 238 255 279 264 256 256 253 254
13 359 7 12 2 332 316 304 298 298 283 277 269 268 264 256 258 254 256 260 268 265 266 255 249 243 243 246 251 248 249 248 249 251 242 223 228 268 268 270 268 258 253 258 256
24 13 12 353 349 332 321 312 301 298 293 285 265 278 265 255 254 253 258 260 261 267 262 256 248 250 251 253 254 252 251 253 252 253 241 235 230 236 253 254 261 261 264 265 259
24 24 17 6 6 344 327 319 308 303 297 280 268 276 271 262 259 254 260 256 254 260 259 259 250 253 251 254 255 252 251 253 255 255 258 243 241 252 272 266 246 242 252 249 251
33 33 30 22 17 6 342 316 306 303 302 294 284 275 269 268 269 269 264 259 257 256 256 256 252 251 248 254 256 250 247 252 257 258 258 241 253 261 261 265 268 253 237 239 247